Regional Weather Roundup
Issued by NWS

Home | Current Version | Previous Version | Text Only | Print | Product List | Glossary Off
Versions: 1 2 3 4 5 6 7 8 9 10 11 12 13 14 15 16 17 18 19 20 21 22 23 24 25 26 27 28 29 30 31 32 33 34 35 36 37 38 39 40 41 42 43 44 45 46 47 48 49 50

000
ASUS43 KFSD 260702
RWRSD

WEATHER ROUNDUP FOR SOUTH DAKOTA
NATIONAL WEATHER SERVICE SIOUX FALLS SD
200 AM CDT WED APR 26 2017

NOTE: "FAIR" INDICATES FEW OR NO CLOUDS BELOW 12,000 FEET WITH NO
SIGNIFICANT WEATHER AND/OR OBSTRUCTIONS TO VISIBILITY.


SDZ001>005-009-010-012>017-260800-
NORTHWEST AND NORTH CENTRAL SOUTH DAKOTA

CITY           SKY/WX    TMP DP  RH WIND       PRES   REMARKS
BUFFALO          N/A     31  25  78 NW8       29.84F WCI  23
FAITH            N/A     31  28  89 N14       29.87F WCI  21
MOBRIDGE       CLOUDY    35  25  66 N17G23    29.82F WCI  25
$$

SDZ012>016-024>037-041>051-057-063-072>074-260800-
SOUTHWEST AND SOUTH CENTRAL SOUTH DAKOTA

CITY           SKY/WX    TMP DP  RH WIND       PRES   REMARKS
RAPID CTY ARPT CLOUDY    27  24  89 NW14      29.89F WCI  16
PIERRE         CLOUDY    32  28  85 N12       29.83S WCI  23
CUSTER         CLOUDY    25  20  81 CALM      29.80S
ELLSWORTH AFB  CLOUDY    27  27 100 NW15      29.88F WCI  15
PHILIP         LGT SNOW  31  29  92 NW13      29.88S FOG     WCI  21
PINE RIDGE     CLOUDY    29  25  85 N14G20    29.87F WCI  18
WINNER         CLOUDY    33  29  85 NW18G25   29.81F WCI  22
$$

SDZ004>011-016>023-039-040-260800-
NORTHEAST SOUTH DAKOTA

CITY           SKY/WX    TMP DP  RH WIND       PRES   REMARKS
ABERDEEN       FRZ RAIN  31  28  89 N18G24    29.79S FOG     WCI  19
WATERTOWN      CLOUDY    31  30  96 N20       29.66F WCI  19
BROOKINGS      CLOUDY    33  32  96 N17G24    29.63F WCI  22
SISSETON         N/A     33  32  96 N22       29.71F WCI  21
$$

SDZ017-020-022-023-036>040-048>070-260800-
SOUTHEAST SOUTH DAKOTA

CITY           SKY/WX    TMP DP  RH WIND       PRES   REMARKS
SIOUX FALLS    CLOUDY    37  37 100 NW18      29.65R
HURON          CLOUDY    32  32 100 NW15      29.76S WCI  22
CHAMBERLAIN    CLOUDY    34  31  88 NW17G23   29.80S WCI  24
MITCHELL       CLOUDY    34  32  92 NW18      29.75F WCI  23
YANKTON        CLOUDY   N/A N/A N/A NW24G30   29.69S
$$

ABBREVIATIONS USED IN REMARKS
   TC - TEMPERATURE IN CELSIUS
  WCI - WIND CHILL INDEX
   HX - HEAT INDEX
  VSB - VISIBILITY




USA.gov is the U.S. government's official web portal to all federal, state and local government web resources and services.